| time (UTC) | temp F | wind direction | speed MPH | gust MPH | rain 1hr in | rain 24hr in | rain mn in | humidity % | barometer mb |
| 20260508141406 | 59 | 109 | 0.0 | 1.0 | 0.00 | 0.00 | 0.00 | 58 | 1012.6 |
| 20260508140904 | 58 | 114 | 5.0 | 6.0 | 0.00 | 0.00 | 0.00 | 58 | 1012.7 |
| 20260508140401 | 58 | 122 | 4.0 | 7.0 | 0.00 | 0.00 | 0.00 | 59 | 1012.6 |
| 20260508135856 | 57 | 71 | 6.0 | 7.0 | 0.00 | 0.00 | 0.00 | 59 | 1012.6 |
| 20260508135353 | 56 | 121 | 5.0 | 6.0 | 0.00 | 0.00 | 0.00 | 61 | 1012.6 |
| 20260508134849 | 56 | 120 | 7.0 | 8.0 | 0.00 | 0.00 | 0.00 | 60 | 1012.7 |
| 20260508134346 | 56 | 103 | 5.0 | 8.0 | 0.00 | 0.00 | 0.00 | 64 | 1012.6 |
| 20260508133843 | 55 | 135 | 1.0 | 1.0 | 0.00 | 0.00 | 0.00 | 65 | 1012.6 |
| 20260508133341 | 55 | 133 | 3.0 | 3.0 | 0.00 | 0.00 | 0.00 | 69 | 1012.7 |
| 20260508132837 | 54 | 109 | 2.0 | 2.0 | 0.00 | 0.00 | 0.00 | 75 | 1012.7 |
| 20260508132335 | 53 | 131 | 1.0 | 1.0 | 0.00 | 0.00 | 0.00 | 76 | 1012.9 |
| 20260508131832 | 53 | 120 | 0.0 | 0.0 | 0.00 | 0.00 | 0.00 | 83 | 1012.7 |
| 20260508131327 | 52 | 109 | 2.0 | 2.0 | 0.00 | 0.00 | 0.00 | 81 | 1012.9 |
| 20260508130824 | 51 | 117 | 0.0 | 0.0 | 0.00 | 0.00 | 0.00 | 86 | 1012.9 |
| 20260508130321 | 49 | 119 | 1.0 | 2.0 | 0.00 | 0.00 | 0.00 | 85 | 1012.9 |
| 20260508125817 | 47 | 121 | 2.0 | 2.0 | 0.00 | 0.00 | 0.00 | 88 | 1012.8 |
| 20260508125314 | 46 | 126 | 0.0 | 0.0 | 0.00 | 0.00 | 0.00 | 98 | 1012.7 |
| 20260508124812 | 44 | 125 | 0.0 | 1.0 | 0.00 | 0.00 | 0.00 | 99 | 1012.7 |
| 20260508124308 | 42 | 125 | 0.0 | 0.0 | 0.00 | 0.00 | 0.00 | 99 | 1012.8 |
| 20260508123807 | 41 | 127 | 0.0 | 0.0 | 0.00 | 0.00 | 0.00 | 99 | 1012.8 |
| 20260508123305 | 41 | 123 | 0.0 | 0.0 | 0.00 | 0.00 | 0.00 | 99 | 1013.0 |
| 20260508122801 | 40 | 126 | 0.0 | 0.0 | 0.00 | 0.00 | 0.00 | 99 | 1012.9 |
| 20260508122258 | 39 | 126 | 0.0 | 0.0 | 0.00 | 0.00 | 0.00 | 99 | 1012.7 |
| 20260508121755 | 39 | 126 | 0.0 | 0.0 | 0.00 | 0.00 | 0.00 | 99 | 1012.8 |
| 20260508121253 | 38 | 126 | 0.0 | 0.0 | 0.00 | 0.00 | 0.00 | 99 | 1012.9 |
| 20260508120750 | 37 | 126 | 0.0 | 0.0 | 0.00 | 0.00 | 0.00 | 99 | 1012.8 |
| 20260508120248 | 36 | 129 | 0.0 | 0.0 | 0.00 | 0.00 | 0.00 | 99 | 1012.7 |
| 20260508115746 | 36 | 129 | 0.0 | 0.0 | 0.00 | 0.00 | 0.00 | 99 | 1012.6 |
| 20260508115243 | 36 | 129 | 0.0 | 0.0 | 0.00 | 0.00 | 0.00 | 99 | 1012.8 |
| 20260508114739 | 35 | 130 | 0.0 | 0.0 | 0.00 | 0.00 | 0.00 | 99 | 1012.8 |
| 20260508114236 | 35 | 129 | 0.0 | 0.0 | 0.00 | 0.00 | 0.00 | 99 | 1012.9 |
| 20260508113732 | 34 | 129 | 0.0 | 0.0 | 0.00 | 0.00 | 0.00 | 99 | 1012.8 |
| 20260508113231 | 34 | 129 | 0.0 | 0.0 | 0.00 | 0.00 | 0.00 | 99 | 1012.8 |
| 20260508112721 | 34 | 129 | 0.0 | 0.0 | 0.00 | 0.00 | 0.00 | 99 | 1012.6 |
| 20260508112218 | 34 | 129 | 0.0 | 0.0 | 0.00 | 0.00 | 0.00 | 99 | 1012.8 |
| 20260508111715 | 34 | 129 | 0.0 | 0.0 | 0.00 | 0.00 | 0.00 | 99 | 1012.6 |
| 20260508111213 | 34 | 129 | 0.0 | 0.0 | 0.00 | 0.00 | 0.00 | 99 | 1012.7 |
| 20260508110709 | 33 | 129 | 0.0 | 0.0 | 0.00 | 0.00 | 0.00 | 99 | 1012.6 |
| 20260508110206 | 33 | 129 | 0.0 | 0.0 | 0.00 | 0.00 | 0.00 | 99 | 1012.4 |
| 20260508105700 | 33 | 128 | 0.0 | 0.0 | 0.00 | 0.00 | 0.00 | 99 | 1012.6 |
| 20260508105158 | 33 | 128 | 0.0 | 0.0 | 0.00 | 0.00 | 0.00 | 99 | 1012.4 |
| 20260508104655 | 33 | 128 | 0.0 | 0.0 | 0.00 | 0.00 | 0.00 | 99 | 1012.2 |
| 20260508104152 | 33 | 129 | 0.0 | 0.0 | 0.00 | 0.00 | 0.00 | 99 | 1012.4 |
| 20260508103649 | 33 | 128 | 0.0 | 0.0 | 0.00 | 0.00 | 0.00 | 99 | 1012.4 |
| 20260508103146 | 33 | 129 | 0.0 | 0.0 | 0.00 | 0.00 | 0.00 | 99 | 1012.5 |
| 20260508102643 | 33 | 129 | 0.0 | 0.0 | 0.00 | 0.00 | 0.00 | 99 | 1012.2 |
| 20260508102141 | 34 | 129 | 0.0 | 0.0 | 0.00 | 0.00 | 0.00 | 99 | 1012.2 |
| 20260508101638 | 33 | 128 | 0.0 | 0.0 | 0.00 | 0.00 | 0.00 | 99 | 1012.1 |
| 20260508101136 | 34 | 132 | 0.0 | 0.0 | 0.00 | 0.00 | 0.00 | 99 | 1012.0 |
| 20260508100633 | 34 | 132 | 0.0 | 0.0 | 0.00 | 0.00 | 0.00 | 99 | 1011.8 |
| 20260508100131 | 34 | 132 | 0.0 | 0.0 | 0.00 | 0.00 | 0.00 | 99 | 1012.0 |
| 20260508095627 | 34 | 132 | 0.0 | 0.0 | 0.00 | 0.00 | 0.00 | 99 | 1012.0 |
| 20260508095125 | 34 | 132 | 0.0 | 0.0 | 0.00 | 0.00 | 0.00 | 99 | 1011.8 |
| 20260508094621 | 34 | 132 | 0.0 | 0.0 | 0.00 | 0.00 | 0.00 | 99 | 1011.9 |
| 20260508094118 | 34 | 132 | 0.0 | 0.0 | 0.00 | 0.00 | 0.00 | 99 | 1012.0 |
| 20260508093615 | 34 | 132 | 0.0 | 0.0 | 0.00 | 0.00 | 0.00 | 99 | 1012.0 |
| 20260508093113 | 34 | 131 | 0.0 | 0.0 | 0.00 | 0.00 | 0.00 | 99 | 1011.9 |
| 20260508092610 | 34 | 131 | 0.0 | 0.0 | 0.00 | 0.00 | 0.00 | 99 | 1011.9 |
| 20260508092109 | 34 | 132 | 0.0 | 0.0 | 0.00 | 0.00 | 0.00 | 99 | 1011.9 |
| 20260508091605 | 34 | 131 | 0.0 | 0.0 | 0.00 | 0.00 | 0.00 | 99 | 1011.9 |
| 20260508091102 | 34 | 131 | 0.0 | 0.0 | 0.00 | 0.00 | 0.00 | 99 | 1011.9 |
| 20260508090600 | 34 | 131 | 0.0 | 0.0 | 0.00 | 0.00 | 0.00 | 99 | 1011.6 |
| 20260508090056 | 34 | 132 | 0.0 | 0.0 | 0.00 | 0.00 | 0.00 | 99 | 1011.8 |
| 20260508085553 | 34 | 132 | 0.0 | 0.0 | 0.00 | 0.00 | 0.00 | 99 | 1011.7 |
| 20260508085051 | 34 | 132 | 0.0 | 0.0 | 0.00 | 0.00 | 0.00 | 99 | 1011.9 |
| 20260508084547 | 34 | 131 | 0.0 | 0.0 | 0.00 | 0.00 | 0.00 | 99 | 1011.9 |
| 20260508084044 | 35 | 132 | 0.0 | 0.0 | 0.00 | 0.00 | 0.00 | 99 | 1011.8 |
| 20260508083541 | 35 | 132 | 0.0 | 0.0 | 0.00 | 0.00 | 0.00 | 99 | 1011.7 |
| 20260508083038 | 35 | 132 | 0.0 | 0.0 | 0.00 | 0.00 | 0.00 | 99 | 1011.8 |
| 20260508082534 | 35 | 132 | 0.0 | 0.0 | 0.00 | 0.00 | 0.00 | 99 | 1011.8 |
| 20260508082032 | 35 | 132 | 0.0 | 0.0 | 0.00 | 0.00 | 0.00 | 99 | 1011.7 |
| 20260508081529 | 35 | 131 | 0.0 | 0.0 | 0.00 | 0.00 | 0.00 | 99 | 1011.8 |
| 20260508081025 | 35 | 131 | 0.0 | 0.0 | 0.00 | 0.00 | 0.00 | 99 | 1011.7 |
| 20260508080523 | 35 | 131 | 0.0 | 0.0 | 0.00 | 0.00 | 0.00 | 99 | 1011.7 |
| 20260508080020 | 35 | 131 | 0.0 | 0.0 | 0.00 | 0.00 | 0.00 | 99 | 1011.8 |
| 20260508075516 | 35 | 132 | 0.0 | 0.0 | 0.00 | 0.00 | 0.00 | 99 | 1011.7 |
| 20260508075014 | 35 | 131 | 0.0 | 0.0 | 0.00 | 0.00 | 0.00 | 99 | 1011.7 |
| 20260508074512 | 35 | 132 | 0.0 | 0.0 | 0.00 | 0.00 | 0.00 | 99 | 1011.8 |
| 20260508074008 | 36 | 129 | 0.0 | 0.0 | 0.00 | 0.00 | 0.00 | 99 | 1011.7 |
| 20260508073506 | 35 | 128 | 0.0 | 0.0 | 0.00 | 0.00 | 0.00 | 99 | 1011.7 |
| 20260508073003 | 35 | 128 | 0.0 | 0.0 | 0.00 | 0.00 | 0.00 | 99 | 1011.7 |
| 20260508072459 | 35 | 128 | 0.0 | 0.0 | 0.00 | 0.00 | 0.00 | 99 | 1011.6 |
| 20260508071956 | 36 | 128 | 0.0 | 0.0 | 0.00 | 0.00 | 0.00 | 99 | 1011.7 |
| 20260508071454 | 36 | 128 | 0.0 | 0.0 | 0.00 | 0.00 | 0.00 | 99 | 1011.7 |
| 20260508070951 | 36 | 128 | 0.0 | 0.0 | 0.00 | 0.00 | 0.00 | 99 | 1011.6 |
| 20260508070449 | 36 | 133 | 0.0 | 0.0 | 0.00 | 0.00 | 0.00 | 99 | 1011.5 |
| 20260508065947 | 37 | 136 | 2.0 | 2.0 | 0.00 | 0.00 | 0.00 | 99 | 1011.6 |
| 20260508065445 | 37 | 141 | 1.0 | 2.0 | 0.00 | 0.00 | 0.00 | 99 | 1011.4 |
| 20260508064943 | 37 | 129 | 0.0 | 1.0 | 0.00 | 0.00 | 0.00 | 99 | 1011.5 |
| 20260508064440 | 36 | 131 | 0.0 | 0.0 | 0.00 | 0.00 | 0.00 | 99 | 1011.6 |
| 20260508063937 | 37 | 132 | 0.0 | 0.0 | 0.00 | 0.00 | 0.00 | 99 | 1011.7 |
| 20260508063435 | 37 | 133 | 2.0 | 2.0 | 0.00 | 0.00 | 0.00 | 99 | 1011.6 |
| 20260508062932 | 37 | 131 | 0.0 | 0.0 | 0.00 | 0.00 | 0.00 | 99 | 1011.8 |
| 20260508062430 | 37 | 131 | 0.0 | 0.0 | 0.00 | 0.00 | 0.00 | 99 | 1011.9 |
| 20260508061927 | 37 | 131 | 0.0 | 0.0 | 0.00 | 0.00 | 0.00 | 99 | 1011.7 |
| 20260508061424 | 37 | 131 | 1.0 | 1.0 | 0.00 | 0.00 | 0.00 | 99 | 1011.7 |
| 20260508060920 | 37 | 161 | 2.0 | 2.0 | 0.00 | 0.00 | 0.00 | 99 | 1012.0 |
| 20260508060418 | 37 | 142 | 2.0 | 2.0 | 0.00 | 0.00 | 0.00 | 99 | 1011.6 |
| 20260508055913 | 37 | 135 | 0.0 | 0.0 | 0.00 | 0.00 | 0.00 | 98 | 1011.8 |
| 20260508055410 | 37 | 132 | 0.0 | 0.0 | 0.00 | 0.00 | 0.00 | 98 | 1011.8 |
| 20260508054907 | 37 | 135 | 0.0 | 0.0 | 0.00 | 0.00 | 0.00 | 98 | 1012.0 |
| 20260508054404 | 38 | 133 | 0.0 | 0.0 | 0.00 | 0.00 | 0.00 | 98 | 1011.9 |
| 20260508053901 | 37 | 132 | 0.0 | 0.0 | 0.00 | 0.00 | 0.00 | 98 | 1011.9 |
| 20260508053358 | 38 | 134 | 0.0 | 0.0 | 0.00 | 0.00 | 0.00 | 97 | 1012.0 |
| 20260508052856 | 38 | 133 | 0.0 | 0.0 | 0.00 | 0.00 | 0.00 | 97 | 1011.6 |
| 20260508052353 | 38 | 132 | 0.0 | 0.0 | 0.00 | 0.00 | 0.00 | 97 | 1011.7 |
| 20260508051849 | 38 | 132 | 0.0 | 0.0 | 0.00 | 0.00 | 0.00 | 97 | 1011.7 |
| 20260508051345 | 38 | 131 | 0.0 | 0.0 | 0.00 | 0.00 | 0.00 | 97 | 1011.7 |
| 20260508050841 | 38 | 131 | 0.0 | 0.0 | 0.00 | 0.00 | 0.00 | 97 | 1011.7 |
| 20260508050338 | 38 | 132 | 0.0 | 0.0 | 0.00 | 0.00 | 0.00 | 98 | 1011.7 |
| 20260508045834 | 38 | 133 | 0.0 | 1.0 | 0.00 | 0.00 | 0.00 | 98 | 1011.7 |
| 20260508045332 | 39 | 136 | 1.0 | 1.0 | 0.00 | 0.00 | 0.00 | 98 | 1011.9 |
| 20260508044829 | 39 | 135 | 1.0 | 2.0 | 0.00 | 0.00 | 0.00 | 97 | 1012.0 |
| 20260508044325 | 39 | 133 | 1.0 | 1.0 | 0.00 | 0.00 | 0.00 | 97 | 1011.8 |
| 20260508043822 | 39 | 132 | 0.0 | 0.0 | 0.00 | 0.00 | 0.00 | 97 | 1011.9 |
| 20260508043319 | 39 | 134 | 1.0 | 1.0 | 0.00 | 0.00 | 0.00 | 97 | 1011.9 |
| 20260508042816 | 39 | 136 | 1.0 | 2.0 | 0.00 | 0.00 | 0.00 | 97 | 1011.9 |
| 20260508042314 | 39 | 135 | 0.0 | 0.0 | 0.00 | 0.00 | 0.00 | 96 | 1011.7 |
| 20260508041810 | 40 | 134 | 1.0 | 1.0 | 0.00 | 0.00 | 0.00 | 96 | 1011.8 |
| 20260508041306 | 40 | 138 | 2.0 | 2.0 | 0.00 | 0.00 | 0.00 | 96 | 1011.9 |
| 20260508040803 | 40 | 136 | 1.0 | 2.0 | 0.00 | 0.00 | 0.00 | 96 | 1011.8 |
| 20260508040301 | 40 | 136 | 1.0 | 2.0 | 0.00 | 0.00 | 0.00 | 96 | 1011.6 |
| 20260508035758 | 40 | 144 | 3.0 | 3.0 | 0.00 | 0.00 | 0.00 | 96 | 1011.8 |
| 20260508035255 | 40 | 136 | 2.0 | 2.0 | 0.00 | 0.00 | 0.00 | 95 | 1011.6 |
| 20260508034751 | 40 | 136 | 2.0 | 2.0 | 0.00 | 0.00 | 0.00 | 95 | 1012.0 |
| 20260508034249 | 41 | 135 | 1.0 | 2.0 | 0.00 | 0.00 | 0.00 | 95 | 1011.8 |
| 20260508033746 | 41 | 144 | 2.0 | 2.0 | 0.00 | 0.00 | 0.00 | 94 | 1011.9 |
| 20260508033244 | 41 | 133 | 2.0 | 2.0 | 0.00 | 0.00 | 0.00 | 94 | 1011.9 |
| 20260508032741 | 41 | 138 | 2.0 | 2.0 | 0.00 | 0.00 | 0.00 | 94 | 1011.8 |
| 20260508032238 | 41 | 132 | 1.0 | 2.0 | 0.00 | 0.00 | 0.00 | 93 | 1011.7 |
| 20260508031735 | 41 | 131 | 1.0 | 1.0 | 0.00 | 0.00 | 0.00 | 93 | 1011.8 |
| 20260508031231 | 41 | 131 | 1.0 | 1.0 | 0.00 | 0.00 | 0.00 | 92 | 1011.8 |
| 20260508030728 | 42 | 132 | 1.0 | 1.0 | 0.00 | 0.00 | 0.00 | 92 | 1011.9 |
| 20260508030225 | 42 | 134 | 2.0 | 2.0 | 0.00 | 0.00 | 0.00 | 91 | 1011.8 |
| 20260508025722 | 42 | 131 | 1.0 | 1.0 | 0.00 | 0.00 | 0.00 | 91 | 1011.8 |
| 20260508025219 | 42 | 132 | 1.0 | 1.0 | 0.00 | 0.00 | 0.00 | 90 | 1011.7 |
| 20260508024714 | 42 | 134 | 1.0 | 1.0 | 0.00 | 0.00 | 0.00 | 90 | 1011.7 |
| 20260508024212 | 43 | 132 | 1.0 | 1.0 | 0.00 | 0.00 | 0.00 | 90 | 1011.6 |
| 20260508023708 | 43 | 132 | 1.0 | 1.0 | 0.00 | 0.00 | 0.00 | 89 | 1011.6 |
| 20260508023206 | 43 | 133 | 1.0 | 1.0 | 0.00 | 0.00 | 0.00 | 87 | 1011.6 |
| 20260508022701 | 43 | 132 | 1.0 | 1.0 | 0.00 | 0.00 | 0.00 | 86 | 1011.3 |
| 20260508022159 | 44 | 128 | 1.0 | 1.0 | 0.00 | 0.00 | 0.00 | 86 | 1011.5 |
| 20260508021655 | 44 | 126 | 1.0 | 1.0 | 0.00 | 0.00 | 0.00 | 84 | 1011.3 |
| 20260508021150 | 44 | 126 | 0.0 | 0.0 | 0.00 | 0.00 | 0.00 | 83 | 1011.2 |
| 20260508020648 | 45 | 126 | 0.0 | 0.0 | 0.00 | 0.00 | 0.00 | 82 | 1011.5 |
| 20260508020146 | 45 | 126 | 0.0 | 0.0 | 0.00 | 0.00 | 0.00 | 80 | 1011.1 |
| 20260508015643 | 45 | 126 | 0.0 | 0.0 | 0.00 | 0.00 | 0.00 | 80 | 1011.1 |
| 20260508015140 | 45 | 126 | 0.0 | 0.0 | 0.00 | 0.00 | 0.00 | 81 | 1011.0 |
| 20260508014636 | 46 | 126 | 0.0 | 0.0 | 0.00 | 0.00 | 0.00 | 81 | 1010.9 |
| 20260508014132 | 46 | 128 | 0.0 | 0.0 | 0.00 | 0.00 | 0.00 | 80 | 1010.9 |
| 20260508013629 | 46 | 132 | 0.0 | 0.0 | 0.00 | 0.00 | 0.00 | 80 | 1010.9 |
| 20260508013126 | 47 | 130 | 1.0 | 1.0 | 0.00 | 0.00 | 0.00 | 79 | 1010.8 |
| 20260508012623 | 47 | 137 | 0.0 | 1.0 | 0.00 | 0.00 | 0.00 | 76 | 1010.6 |
| 20260508012120 | 48 | 130 | 0.0 | 0.0 | 0.00 | 0.00 | 0.00 | 75 | 1010.6 |
| 20260508011619 | 48 | 131 | 0.0 | 0.0 | 0.00 | 0.00 | 0.00 | 72 | 1010.4 |
| 20260508011115 | 49 | 130 | 0.0 | 0.0 | 0.00 | 0.00 | 0.00 | 70 | 1010.4 |
| 20260508010612 | 49 | 130 | 0.0 | 0.0 | 0.00 | 0.00 | 0.00 | 69 | 1010.3 |
| 20260508010110 | 50 | 130 | 0.0 | 0.0 | 0.00 | 0.00 | 0.00 | 67 | 1010.2 |
| 20260508005606 | 50 | 130 | 0.0 | 0.0 | 0.00 | 0.00 | 0.00 | 66 | 1010.1 |
| 20260508005103 | 51 | 130 | 0.0 | 0.0 | 0.00 | 0.00 | 0.00 | 64 | 1010.2 |
| 20260508004559 | 51 | 130 | 0.0 | 0.0 | 0.00 | 0.00 | 0.00 | 64 | 1010.2 |
| 20260508004056 | 52 | 130 | 0.0 | 0.0 | 0.00 | 0.00 | 0.00 | 63 | 1010.3 |
| 20260508003552 | 52 | 128 | 0.0 | 0.0 | 0.00 | 0.00 | 0.00 | 60 | 1010.0 |
| 20260508003050 | 53 | 127 | 0.0 | 0.0 | 0.00 | 0.00 | 0.00 | 58 | 1009.9 |
| 20260508002546 | 54 | 128 | 1.0 | 1.0 | 0.00 | 0.00 | 0.00 | 55 | 1009.9 |
| 20260508002044 | 55 | 132 | 0.0 | 0.0 | 0.00 | 0.00 | 0.00 | 54 | 1010.0 |
| 20260508001539 | 57 | 132 | 0.0 | 0.0 | 0.00 | 0.00 | 0.00 | 50 | 1009.8 |
| 20260508001035 | 58 | 127 | 0.0 | 0.0 | 0.00 | 0.00 | 0.00 | 45 | 1009.9 |
| 20260508000531 | 59 | 111 | 1.0 | 1.0 | 0.00 | 0.00 | 0.00 | 39 | 1009.5 |
| 20260508000029 | 59 | 85 | 3.0 | 3.0 | 0.00 | 0.00 | 0.00 | 38 | 1009.4 |
| 20260507235525 | 59 | 154 | 1.0 | 1.0 | 0.00 | 0.00 | 0.00 | 38 | 1009.4 |
| 20260507235023 | 59 | 128 | 1.0 | 1.0 | 0.00 | 0.00 | 0.00 | 37 | 1009.4 |
| 20260507234519 | 60 | 116 | 1.0 | 1.0 | 0.00 | 0.00 | 0.00 | 38 | 1009.3 |
| 20260507234016 | 60 | 144 | 2.0 | 2.0 | 0.00 | 0.00 | 0.00 | 38 | 1009.4 |
| 20260507233512 | 61 | 67 | 3.0 | 5.0 | 0.00 | 0.00 | 0.00 | 37 | 1009.2 |
| 20260507233011 | 61 | 120 | 2.0 | 2.0 | 0.00 | 0.00 | 0.00 | 36 | 1009.3 |
| 20260507232507 | 61 | 133 | 2.0 | 3.0 | 0.00 | 0.00 | 0.00 | 36 | 1009.2 |
| 20260507232005 | 61 | 136 | 2.0 | 3.0 | 0.00 | 0.00 | 0.00 | 35 | 1009.0 |
| 20260507231501 | 61 | 7 | 3.0 | 6.0 | 0.00 | 0.00 | 0.00 | 35 | 1008.9 |
| 20260507230958 | 62 | 52 | 3.0 | 5.0 | 0.00 | 0.00 | 0.00 | 36 | 1009.3 |
| 20260507230455 | 62 | 72 | 3.0 | 3.0 | 0.00 | 0.00 | 0.00 | 36 | 1009.1 |
| 20260507225950 | 62 | 330 | 5.0 | 7.0 | 0.00 | 0.00 | 0.00 | 37 | 1009.3 |
| 20260507225446 | 62 | 146 | 2.0 | 2.0 | 0.00 | 0.00 | 0.00 | 36 | 1009.1 |
| 20260507224943 | 62 | 20 | 3.0 | 3.0 | 0.00 | 0.00 | 0.00 | 34 | 1009.0 |
| 20260507224439 | 62 | 331 | 8.0 | 10.0 | 0.00 | 0.00 | 0.00 | 34 | 1009.0 |
| 20260507223936 | 63 | 150 | 3.0 | 3.0 | 0.00 | 0.00 | 0.00 | 37 | 1009.1 |
| 20260507223432 | 63 | 117 | 3.0 | 5.0 | 0.00 | 0.00 | 0.00 | 39 | 1009.0 |
| 20260507222929 | 64 | 331 | 3.0 | 6.0 | 0.00 | 0.00 | 0.00 | 37 | 1009.2 |
| 20260507222426 | 63 | 155 | 3.0 | 3.0 | 0.00 | 0.00 | 0.00 | 38 | 1008.9 |
| 20260507221922 | 63 | 92 | 1.0 | 2.0 | 0.00 | 0.00 | 0.00 | 38 | 1009.0 |
| 20260507221419 | 64 | 131 | 3.0 | 3.0 | 0.00 | 0.00 | 0.00 | 38 | 1009.0 |
| 20260507220915 | 64 | 355 | 6.0 | 7.0 | 0.00 | 0.00 | 0.00 | 38 | 1008.9 |
| 20260507220413 | 64 | 300 | 3.0 | 5.0 | 0.00 | 0.00 | 0.00 | 40 | 1008.8 |
| 20260507215909 | 64 | 315 | 4.0 | 6.0 | 0.00 | 0.00 | 0.00 | 40 | 1008.7 |
| 20260507215406 | 64 | 64 | 4.0 | 5.0 | 0.00 | 0.00 | 0.00 | 39 | 1008.5 |
| 20260507214903 | 64 | 176 | 5.0 | 8.0 | 0.00 | 0.00 | 0.00 | 39 | 1008.7 |
| 20260507214401 | 64 | 108 | 2.0 | 3.0 | 0.00 | 0.00 | 0.00 | 39 | 1008.8 |
| 20260507213856 | 65 | 7 | 5.0 | 6.0 | 0.00 | 0.00 | 0.00 | 39 | 1008.7 |
| 20260507213353 | 64 | 215 | 7.0 | 11.0 | 0.00 | 0.00 | 0.00 | 41 | 1008.7 |
| 20260507212850 | 65 | 64 | 5.0 | 7.0 | 0.00 | 0.00 | 0.00 | 40 | 1008.6 |
| 20260507212346 | 64 | 129 | 0.0 | 0.0 | 0.00 | 0.00 | 0.00 | 42 | 1008.4 |
| 20260507211842 | 66 | 106 | 2.0 | 3.0 | 0.00 | 0.00 | 0.00 | 40 | 1008.4 |
| 20260507211339 | 66 | 140 | 1.0 | 2.0 | 0.00 | 0.00 | 0.00 | 40 | 1008.4 |
| 20260507210836 | 65 | 60 | 2.0 | 3.0 | 0.00 | 0.00 | 0.00 | 40 | 1008.3 |
| 20260507210333 | 65 | 149 | 3.0 | 3.0 | 0.00 | 0.00 | 0.00 | 43 | 1008.4 |
| 20260507205829 | 64 | 108 | 4.0 | 7.0 | 0.00 | 0.00 | 0.00 | 40 | 1008.3 |
| 20260507205327 | 64 | 32 | 3.0 | 3.0 | 0.00 | 0.00 | 0.00 | 41 | 1008.3 |
| 20260507204822 | 65 | 264 | 5.0 | 8.0 | 0.00 | 0.00 | 0.00 | 40 | 1008.3 |
| 20260507204320 | 66 | 153 | 3.0 | 3.0 | 0.00 | 0.00 | 0.00 | 43 | 1008.2 |
| 20260507203818 | 65 | 348 | 6.0 | 8.0 | 0.00 | 0.00 | 0.00 | 42 | 1008.1 |
| 20260507203315 | 66 | 134 | 1.0 | 3.0 | 0.00 | 0.00 | 0.00 | 40 | 1008.1 |
| 20260507202811 | 66 | 124 | 0.0 | 1.0 | 0.00 | 0.00 | 0.00 | 42 | 1008.0 |
| 20260507202308 | 66 | 131 | 0.0 | 0.0 | 0.00 | 0.00 | 0.00 | 44 | 1008.1 |
| 20260507201803 | 64 | 225 | 2.0 | 3.0 | 0.00 | 0.00 | 0.00 | 44 | 1008.2 |
| 20260507201259 | 65 | 139 | 3.0 | 6.0 | 0.00 | 0.00 | 0.00 | 42 | 1008.0 |
| 20260507200756 | 64 | 316 | 1.0 | 2.0 | 0.00 | 0.00 | 0.00 | 43 | 1008.2 |
| 20260507200251 | 63 | 46 | 3.0 | 6.0 | 0.00 | 0.00 | 0.00 | 43 | 1008.1 |
| 20260507195748 | 65 | 2 | 3.0 | 5.0 | 0.00 | 0.00 | 0.00 | 46 | 1008.0 |
| 20260507195245 | 64 | 184 | 3.0 | 3.0 | 0.00 | 0.00 | 0.00 | 46 | 1008.2 |
| 20260507194743 | 63 | 149 | 2.0 | 2.0 | 0.00 | 0.00 | 0.00 | 47 | 1008.3 |
| 20260507194238 | 64 | 3 | 6.0 | 10.0 | 0.00 | 0.00 | 0.00 | 44 | 1008.1 |
| 20260507193735 | 63 | 341 | 4.0 | 5.0 | 0.00 | 0.00 | 0.00 | 47 | 1008.4 |
| 20260507193232 | 62 | 126 | 2.0 | 2.0 | 0.00 | 0.00 | 0.00 | 47 | 1008.4 |
| 20260507192728 | 64 | 172 | 2.0 | 3.0 | 0.00 | 0.00 | 0.00 | 48 | 1008.4 |
| 20260507192225 | 63 | 126 | 0.0 | 1.0 | 0.00 | 0.00 | 0.00 | 45 | 1008.4 |
| 20260507191721 | 62 | 94 | 3.0 | 3.0 | 0.00 | 0.00 | 0.00 | 46 | 1008.5 |
| 20260507191218 | 63 | 351 | 3.0 | 3.0 | 0.00 | 0.00 | 0.00 | 46 | 1008.8 |
| 20260507190715 | 62 | 148 | 3.0 | 5.0 | 0.00 | 0.00 | 0.00 | 46 | 1008.8 |
| 20260507190213 | 63 | 5 | 7.0 | 11.0 | 0.00 | 0.00 | 0.00 | 45 | 1008.7 |
| 20260507185711 | 64 | 182 | 5.0 | 6.0 | 0.00 | 0.00 | 0.00 | 45 | 1009.0 |
| 20260507185208 | 63 | 144 | 2.0 | 2.0 | 0.00 | 0.00 | 0.00 | 52 | 1008.9 |
| 20260507184706 | 62 | 138 | 3.0 | 6.0 | 0.00 | 0.00 | 0.00 | 47 | 1009.0 |
| 20260507184204 | 61 | 119 | 2.0 | 3.0 | 0.00 | 0.00 | 0.00 | 46 | 1008.8 |
| 20260507183700 | 62 | 343 | 5.0 | 5.0 | 0.00 | 0.00 | 0.00 | 46 | 1008.8 |
| 20260507183157 | 64 | 126 | 3.0 | 6.0 | 0.00 | 0.00 | 0.00 | 46 | 1009.0 |
| 20260507182654 | 64 | 357 | 7.0 | 9.0 | 0.00 | 0.00 | 0.00 | 45 | 1009.1 |
| 20260507182149 | 63 | 144 | 0.0 | 1.0 | 0.00 | 0.00 | 0.00 | 45 | 1009.3 |
| 20260507181646 | 63 | 61 | 1.0 | 1.0 | 0.00 | 0.00 | 0.00 | 44 | 1009.0 |
| 20260507181143 | 63 | 110 | 3.0 | 3.0 | 0.00 | 0.00 | 0.00 | 47 | 1009.1 |
| 20260507180639 | 63 | 52 | 5.0 | 6.0 | 0.00 | 0.00 | 0.00 | 49 | 1009.0 |
| 20260507180136 | 62 | 289 | 4.0 | 6.0 | 0.00 | 0.00 | 0.00 | 49 | 1009.0 |
| 20260507175632 | 62 | 134 | 0.0 | 1.0 | 0.00 | 0.00 | 0.00 | 49 | 1009.1 |
| 20260507175129 | 64 | 129 | 3.0 | 5.0 | 0.00 | 0.00 | 0.00 | 49 | 1009.2 |
| 20260507174626 | 64 | 278 | 4.0 | 6.0 | 0.00 | 0.00 | 0.00 | 50 | 1009.0 |
| 20260507174124 | 61 | 103 | 3.0 | 3.0 | 0.00 | 0.00 | 0.00 | 51 | 1009.2 |
| 20260507173621 | 61 | 86 | 3.0 | 5.0 | 0.00 | 0.00 | 0.00 | 52 | 1009.1 |
| 20260507173118 | 62 | 129 | 1.0 | 2.0 | 0.00 | 0.00 | 0.00 | 52 | 1009.5 |
| 20260507172614 | 62 | 125 | 1.0 | 2.0 | 0.00 | 0.00 | 0.00 | 51 | 1009.0 |
| 20260507172112 | 63 | 339 | 5.0 | 6.0 | 0.00 | 0.00 | 0.00 | 53 | 1009.3 |
| 20260507171606 | 62 | 185 | 3.0 | 5.0 | 0.00 | 0.00 | 0.00 | 52 | 1009.5 |
| 20260507171104 | 61 | 74 | 4.0 | 5.0 | 0.00 | 0.00 | 0.00 | 52 | 1009.8 |
| 20260507170601 | 61 | 12 | 5.0 | 7.0 | 0.00 | 0.00 | 0.00 | 52 | 1009.8 |
| 20260507170058 | 61 | 108 | 2.0 | 3.0 | 0.00 | 0.00 | 0.00 | 54 | 1009.5 |
| 20260507165553 | 62 | 138 | 3.0 | 3.0 | 0.00 | 0.00 | 0.00 | 52 | 1009.7 |
| 20260507165049 | 62 | 174 | 4.0 | 5.0 | 0.00 | 0.00 | 0.00 | 51 | 1009.8 |
| 20260507164546 | 63 | 127 | 1.0 | 2.0 | 0.00 | 0.00 | 0.00 | 53 | 1009.5 |
| 20260507164043 | 62 | 83 | 3.0 | 3.0 | 0.00 | 0.00 | 0.00 | 50 | 1009.9 |
| 20260507163540 | 62 | 136 | 4.0 | 6.0 | 0.00 | 0.00 | 0.00 | 53 | 1009.8 |
| 20260507163039 | 62 | 178 | 1.0 | 2.0 | 0.00 | 0.00 | 0.00 | 51 | 1009.9 |
| 20260507162538 | 62 | 135 | 0.0 | 0.0 | 0.00 | 0.00 | 0.00 | 56 | 1009.8 |
| 20260507162036 | 62 | 116 | 3.0 | 3.0 | 0.00 | 0.00 | 0.00 | 51 | 1009.8 |
| 20260507161532 | 60 | 94 | 3.0 | 3.0 | 0.00 | 0.00 | 0.00 | 54 | 1009.9 |
| 20260507161029 | 61 | 288 | 4.0 | 6.0 | 0.00 | 0.00 | 0.00 | 54 | 1010.0 |
| 20260507160525 | 60 | 90 | 1.0 | 2.0 | 0.00 | 0.00 | 0.00 | 56 | 1010.0 |
| 20260507160021 | 59 | 127 | 0.0 | 0.0 | 0.00 | 0.00 | 0.00 | 56 | 1009.9 |
| 20260507155516 | 59 | 134 | 0.0 | 1.0 | 0.00 | 0.00 | 0.00 | 57 | 1010.2 |
| 20260507155014 | 58 | 254 | 4.0 | 5.0 | 0.00 | 0.00 | 0.00 | 56 | 1010.1 |
| 20260507154511 | 60 | 160 | 1.0 | 2.0 | 0.00 | 0.00 | 0.00 | 56 | 1010.2 |
| 20260507154009 | 61 | 79 | 3.0 | 3.0 | 0.00 | 0.00 | 0.00 | 56 | 1009.9 |
| 20260507153505 | 59 | 196 | 3.0 | 3.0 | 0.00 | 0.00 | 0.00 | 59 | 1010.1 |
| 20260507153001 | 59 | 192 | 2.0 | 5.0 | 0.00 | 0.00 | 0.00 | 59 | 1010.1 |
| 20260507152457 | 61 | 256 | 5.0 | 8.0 | 0.00 | 0.00 | 0.00 | 62 | 1010.0 |
| 20260507151953 | 60 | 111 | 0.0 | 0.0 | 0.00 | 0.00 | 0.00 | 56 | 1009.9 |
| 20260507151450 | 59 | 153 | 2.0 | 2.0 | 0.00 | 0.00 | 0.00 | 56 | 1010.2 |
| 20260507150946 | 59 | 225 | 5.0 | 6.0 | 0.00 | 0.00 | 0.00 | 58 | 1009.9 |
| 20260507150443 | 60 | 153 | 3.0 | 3.0 | 0.00 | 0.00 | 0.00 | 56 | 1009.9 |
| 20260507145940 | 60 | 122 | 0.0 | 0.0 | 0.00 | 0.00 | 0.00 | 57 | 1010.1 |
| 20260507145435 | 60 | 85 | 3.0 | 3.0 | 0.00 | 0.00 | 0.00 | 56 | 1010.1 |
| 20260507144933 | 59 | 166 | 3.0 | 3.0 | 0.00 | 0.00 | 0.00 | 58 | 1010.3 |
| 20260507144429 | 59 | 102 | 1.0 | 2.0 | 0.00 | 0.00 | 0.00 | 58 | 1010.3 |
| 20260507143927 | 58 | 136 | 1.0 | 1.0 | 0.00 | 0.00 | 0.00 | 61 | 1010.1 |
| 20260507143424 | 58 | 348 | 4.0 | 5.0 | 0.00 | 0.00 | 0.00 | 59 | 1010.3 |
| 20260507142920 | 59 | 136 | 1.0 | 1.0 | 0.00 | 0.00 | 0.00 | 60 | 1009.9 |
| 20260507142416 | 58 | 114 | 2.0 | 2.0 | 0.00 | 0.00 | 0.00 | 62 | 1010.2 |
| 20260507141914 | 58 | 63 | 3.0 | 3.0 | 0.00 | 0.00 | 0.00 | 61 | 1010.3 |